STARLINK-2558, 48282

Orbit data source: Space-Track

STARLINK-2558, 48282 is a payload satellite owned by SpaceX/Seattle (US) in LEO that was launched on Thu, 29 Apr 2021 UTC via an FALCON 9 launch vehicle from the Air Force Eastern Test Range (AFETR). Payload-class satellites include a variety of spacecraft equipped with specific instruments for various scientific and technological missions. These include communications satellites like Starlink; space stations such as the ISS; scientific satellites like the Hubble; Earth observation satellites from companies like Planet Labs, Umbra, and HawkEye 360; GPS; miniature CubeSats for education and research; and military/defense satellites.

Loading next visibility...
Identifier
48282, 2021-036G
Orbit
LEO
Country
Flag of USUS
Related business
Manufacturer
SpaceX/Seattle
Mission
Operational Commercial Communications
Bus & Motor
STARLINK, Unknown motor
Mass
260 kg wet, ~248 kg dry
Launch date (UTC)
2021-04-29 (4 years ago)
Launch vehicle
FALCON 9
Launch site
Air Force Eastern Test Range (AFETR)
Object type
Payload
Rocket body
Debris
Shape & HBR
Box + 1 Pan, 10.1 m
Radar Cross Section
13.562 m², Large (>1 m²)

Expand to show TLE details & history
Last TLE update: 1 day ago

TLE from 1 day ago
0 STARLINK-2558
1 48282U 21036G   25290.49191853  .00020134  00000-0  13663-2 0  9995
2 48282  53.0559   4.4578 0001378  93.3583 266.7564 15.06411103246731
Epoch: 2025-10-17T11:48Z
TLE epoch observation values (Epoch: 2025-10-17T11:48:21.760Z)
Latitude
-0.00002°
Longitude
161.1306°
Altitude
548.111 km
Speed
7.589 km/s
True Right ascension
00h 17m 49s
True Declination
0° 00' 00"
Sunlit
Object was in full shadow at epoch
Visualization orbit readout
Latitude
Unknown
Longitude
Unknown
Altitude
Unknown
Speed
Unknown
Apparent Right ascension
Unknown
Apparent Declination
Unknown
Sunlit
N/A
Visualization observer readout
Local Sidereal Time
07:46:30
Azimuth
Unknown
Elevation
Unknown
Doppler factor
Unknown
Orbital elements
Apogee altitude
548.402 km
Perigee altitude
546.494 km
Semi-major axis
6,925.585 km
Eccentricity
0.00014
Inclination
53.0559°
RAAN
4.4578°
Arg. of periapsis
93.3583°
True anomaly
266.74063°
Mean anomaly
266.7564°
Eccentric anomaly
266.74852°
Mean motion
3.76581 °/min
Orbital period
95.6 mins
BSTAR
0.0013663
Loading maneuver chart data...
Computing Atmospheric mass density...
Loading historical data...
Loading historical data...
Loading historical data...
Loading historical data...
Loading historical data...
Loading historical data...
Loading historical data...

Documentation

Showing up to 5 results
|